Covington, KY

8:08 PM EST on December 14, 2019 (GMT -0500)
Cincinnati-Northern KY International

Weather History for KCVG - October, 2019

Change the Weather History Date:

Saturday, October 19, 2019

  Actual Average Record
Temperature  
Mean Temperature 56 °F 55 °F  
Max Temperature 71 °F 65 °F 84 °F (1920)
Min Temperature 42 °F 44 °F 22 °F (1992)
Degree Days  
Heating Degree Days 8 11  
Month to date heating degree days 114 154  
Since 1 July heating degree days 114 212  
Cooling Degree Days 0 0  
Month to date cooling degree days 54 16  
Year to date cooling degree days 1496 1121  
Growing Degree Days 6 (Base 50)    
Moisture  
Dew Point 40 °F    
Average Humidity 56    
Maximum Humidity 73    
Minimum Humidity 33    
Precipitation  
Precipitation 0.00 in 0.11 in 2.11 in (1905)
Month to date precipitation 1.11 2.03  
Year to date precipitation 43.53 34.45  
Snow  
Snow 0.00 in 0.10 in 5.00 in (1989)
Month to date snowfall 0.0 0.2  
Since 1 July snowfall 0.0 0.2  
Since 1 September snowfall 0.0 0.2  
Snow Depth 0.00 in    
Sea Level Pressure  
Sea Level Pressure 29.89 in    
Wind  
Wind Speed 6 mph ()    
Max Wind Speed 14 mph    
Max Gust Speed 19 mph    
Visibility 10.0 miles    
Events      
T = Trace of Precipitation, MM = Missing Value Source: Averaged Metar Reports

Daily Weather History Graph

Daily Weather History Graph

Search for Another Location

Airport or City:

Astronomy

Oct. 19, 2019 Rise Set
Actual Time 7:52 AM EDT 6:54 PM EDT
Civil Twilight 7:24 AM EDT 7:21 PM EDT
Nautical Twilight 6:53 AM EDT 7:52 PM EDT
Astronomical Twilight 6:22 AM EDT 8:23 PM EDT
Moon 11:04 PM EDT (10/19) 1:21 PM EDT (10/19)
Length of Visible Light 11h 56m
Length of Day
11h 02m
Waning Gibbous, 70% of the Moon is Illuminated
Oct 19
Waning Gibbous
Oct 21
Last Quarter
Oct 27
New
Nov 4
First Quarter
Nov 12
Full

Hourly Weather History & Observations

Time (EDT) Temp. Windchill Dew Point Humidity Pressure Visibility Wind Dir Wind Speed Gust Speed Precip Events Conditions
12:52 AM 48.9 °F - 37.0 °F 64% 29.97 in 10.0 mi ESE 4.6 mph - N/A   Partly Cloudy
1:52 AM 48.0 °F - 37.0 °F 66% 29.96 in 10.0 mi ESE 4.6 mph - N/A   Clear
2:52 AM 46.9 °F - 37.0 °F 68% 29.96 in 10.0 mi ESE 8.1 mph - N/A   Clear
3:52 AM 46.0 °F 41.4 °F 37.0 °F 71% 29.96 in 10.0 mi SE 9.2 mph - N/A   Clear
4:52 AM 45.0 °F 43.5 °F 36.0 °F 71% 29.96 in 10.0 mi East 3.5 mph - N/A   Clear
5:52 AM 45.0 °F - 36.0 °F 71% 29.96 in 10.0 mi Calm Calm - N/A   Clear
6:52 AM 45.0 °F 43.5 °F 36.0 °F 71% 29.96 in 10.0 mi SE 3.5 mph - N/A   Partly Cloudy
7:52 AM 44.1 °F 40.8 °F 36.0 °F 73% 29.96 in 10.0 mi SE 5.8 mph - N/A   Partly Cloudy
8:52 AM 46.0 °F 41.9 °F 37.9 °F 73% 29.96 in 10.0 mi SE 8.1 mph - N/A   Scattered Clouds
9:52 AM 52.0 °F - 39.0 °F 61% 29.97 in 10.0 mi SE 9.2 mph - N/A   Mostly Cloudy
10:52 AM 55.9 °F - 39.9 °F 55% 29.96 in 10.0 mi SSE 8.1 mph - N/A   Mostly Cloudy
11:52 AM 61.0 °F - 41.0 °F 48% 29.94 in 10.0 mi SSE 6.9 mph - N/A   Mostly Cloudy
12:52 PM 63.0 °F - 41.0 °F 45% 29.92 in 10.0 mi SE 6.9 mph - N/A   Mostly Cloudy
1:52 PM 68.0 °F - 42.1 °F 39% 29.88 in 10.0 mi SSW 8.1 mph - N/A   Scattered Clouds
2:52 PM 69.1 °F - 39.9 °F 35% 29.86 in 10.0 mi SW 8.1 mph - N/A   Mostly Cloudy
3:52 PM 70.0 °F - 41.0 °F 35% 29.83 in 10.0 mi SSW 4.6 mph - N/A   Scattered Clouds
4:52 PM 71.1 °F - 41.0 °F 34% 29.81 in 10.0 mi South 9.2 mph - N/A   Scattered Clouds
5:52 PM 68.0 °F - 41.0 °F 37% 29.80 in 10.0 mi South 9.2 mph - N/A   Scattered Clouds
6:52 PM 64.9 °F - 42.1 °F 43% 29.81 in 10.0 mi South 4.6 mph - N/A   Mostly Cloudy
7:52 PM 62.1 °F - 43.0 °F 50% 29.81 in 10.0 mi SSE 5.8 mph - N/A   Overcast
8:52 PM 61.0 °F - 44.1 °F 54% 29.80 in 10.0 mi SSE 9.2 mph - N/A   Mostly Cloudy
9:52 PM 60.1 °F - 45.0 °F 57% 29.81 in 10.0 mi SSE 6.9 mph - N/A   Mostly Cloudy
10:52 PM 61.0 °F - 45.0 °F 56% 29.81 in 10.0 mi SSE 9.2 mph - N/A   Overcast
11:52 PM 60.1 °F - 45.0 °F 57% 29.81 in 10.0 mi South 9.2 mph - N/A   Overcast